Location: Christianberg
(48.9086°N, 14.0209°E)
Time: 20:35:28
(UTC+00:00)

SL-4 R/B - Pass Details

Date: 25 October 2021
Orbit: 427 x 661 km, 51.6° (Epoch: 03 December)

Event Time Altitude Azimuth Distance (km) Brightness Sun altitude
Exits shadow 04:20:05 20° 252° (WSW) 1,334 3.4 -13.7°
Maximum altitude 04:21:29 24° 223° (SW) 1,179 3.3 -13.5°
Drops below altitude 10° 04:24:48 10° 168° (SSE) 1,786 4.8 -12.9°
Sets 04:27:13 0° 154° (SSE) 2,626 5.9 -12.5°
